Orbital Elements at Epoch 2459000.5 (2020-May-31.0) TDB
Reference: JPL 20 (heliocentric ecliptic J2000)
Element | Value | Uncertainty (1-sigma) | Units |
e | .1158562322718479 | 4.045e-08 | |
a | 2.753034744225892 | 1.5164e-08 | au |
q | 2.434078511446389 | 1.1149e-07 | au |
i | 4.561652790401623 | 5.0553e-06 | deg |
node | 181.7086534416917 | 5.2354e-05 | deg |
peri | 134.00118524 | 5.6372e-05 | deg |
M | 86.31131314034165 | 2.0699e-05 | deg |
tp | 2458600.480476045322 (2019-Apr-26.98047605) | 9.5576e-05 | TDB |
period | 1668.460638404719 4.57 | 1.3785e-05 3.774e-08 | d yr |
n | .2157677512513632 | 1.7827e-09 | deg/d |
Q | 3.071990977005394 | 1.692e-08 | au |
|
| | Orbit Determination Parameters
Additional Information
|